Home > Weather > Shymkent > Past weeks

Flag for Kazakhstan Weather for the Past 2 Weeks in Shymkent, Kazakhstan

Now
72 °F

Sprinkles. Overcast.


Feels Like: 75 °F
Forecast: 61 / 66 °F
Wind: 3 mph from South

Location: Shymkent Airport

Current Time: May 1, 2016 at 10:39:33 PM

Latest Report: May 1, 2016 at 10:00 PM


Visibility: N/A

Pressure: 29.80 "Hg (28.10 "Hg at 506m altitude)

Humidity: 69%

Dew Point: 61 °F

Location of ShymkentLocation

Historic Weather in Shymkent — Graph

°F

Shymkent Temperature Yesterday

Maximum temperature yesterday: 81 °F (at 3:30 PM)
Minimum temperature yesterday: 66 °F (at 12:30 AM)
Average temperature yesterday: 73 °F

High & Low Weather Summary for the Past Weeks

 TemperatureHumidityPressure
High90 °F (May 1, 2:00 PM)100% (Apr 17, 6:00 PM)30.24 "Hg (Apr 17, 6:00 PM)
Low46 °F (Apr 19, 7:00 AM)29% (Apr 29, 1:00 PM)29.59 "Hg (Apr 16, 9:00 PM)
Average65 °F67%29.99 "Hg
* Reported Apr 16 9:00 PM — May 1 9:30 PM, Shymkent, Weather by CustomWeather, © 2016

Note: Actual official high and low records may vary slightly from our data, if they occured in-between our weather recording intervals... More about our weather records

Advertising

Shymkent Weather History for the Previous 24 Hours

Scroll right to see more
 ConditionsComfort  
Time TempWeatherWind HumidityBarometerVisibility
9:30 PM
Sun, May 1
73 °FMostly cloudy.1 mph53%29.80 "HgN/A
9:00 PM73 °FMostly cloudy.No wind53%29.80 "HgN/A
8:30 PM75 °FThundershowers. Mostly cloudy.3 mph50%29.77 "HgN/A
8:00 PM75 °FMostly cloudy.1 mph50%29.77 "HgN/A
7:30 PM77 °FThundershowers. Mostly cloudy.3 mph42%29.77 "HgN/A
7:00 PM77 °FSprinkles. Mostly cloudy.8 mph42%29.77 "HgN/A
6:30 PM77 °FThundershowers. Mostly cloudy.13 mph54%29.77 "HgN/A
6:00 PM79 °FThundershowers. Mostly cloudy.3 mph42%29.77 "HgN/A
5:30 PM81 °FThundershowers. Mostly cloudy.6 mph34%29.77 "HgN/A
5:00 PM82 °FMore clouds than sun.13 mph55%29.77 "HgN/A
4:30 PM84 °FOvercast.13 mph55%29.74 "HgN/A
4:00 PM84 °FOvercast.13 mph51%29.74 "HgN/A
3:30 PM86 °FOvercast.13 mph49%29.74 "HgN/A
3:00 PM86 °FOvercast.13 mph46%29.74 "HgN/A
2:30 PM88 °FOvercast.13 mph40%29.71 "HgN/A
2:00 PM90 °FOvercast.10 mph41%29.71 "HgN/A
1:30 PM88 °FOvercast.8 mph43%29.71 "HgN/A
1:00 PM88 °FOvercast.6 mph40%29.71 "HgN/A
12:30 PM88 °FPassing clouds.6 mph43%29.71 "HgN/A
12:00 PM88 °FPassing clouds.3 mph35%29.71 "HgN/A
11:30 AM86 °FPassing clouds.3 mph40%29.71 "HgN/A
10:30 AM82 °FPassing clouds.3 mph40%29.74 "HgN/A
10:00 AM79 °FSunny.6 mph54%29.74 "Hg10 mi
9:00 AM73 °FSunny.6 mph53%29.77 "Hg10 mi
8:30 AM70 °FSunny.8 mph60%29.77 "Hg10 mi
8:00 AM66 °FSunny.8 mph64%29.77 "Hg10 mi
7:30 AM64 °FSunny.6 mph68%29.77 "Hg10 mi
7:00 AM63 °FSunny.6 mph73%29.77 "Hg10 mi
6:30 AM61 °FClear.3 mph77%29.77 "Hg5 mi
6:00 AM59 °FClear.6 mph82%29.77 "Hg10 mi
5:30 AM61 °FClear.6 mph77%29.77 "Hg10 mi
5:00 AM59 °FClear.6 mph77%29.77 "Hg10 mi
4:30 AM63 °FClear.6 mph68%29.80 "Hg10 mi
4:00 AM63 °FClear.3 mph73%29.80 "Hg10 mi
3:30 AM63 °FClear.6 mph73%29.80 "Hg10 mi
3:00 AM63 °FClear.1 mph73%29.80 "Hg10 mi
2:30 AM64 °FClear.3 mph68%29.80 "Hg10 mi
2:00 AM66 °FClear.6 mph68%29.83 "Hg10 mi
1:30 AM66 °FClear.6 mph68%29.83 "Hg10 mi
1:00 AM66 °FClear.6 mph68%29.83 "Hg10 mi
12:30 AM64 °FClear.8 mph73%29.86 "Hg10 mi
12:00 AM66 °FClear.8 mph68%29.86 "Hg10 mi
11:30 PM
Sat, Apr 30
66 °FClear.6 mph68%29.86 "Hg10 mi
11:00 PM68 °FClear.10 mph64%29.89 "Hg10 mi
10:30 PM68 °FClear.10 mph64%29.89 "Hg10 mi
10:00 PM68 °FClear.13 mph64%29.89 "Hg10 mi
Weather by CustomWeather, © 2016

See weather overviewHow to use our weather pages